Location: Bathsheba
(13.2167°N, 59.5167°W)
Time: 22:45:50
(UTC+00:00)

NOAA 11 - Pass Details

Date: 18 September 2020
Orbit: 832 x 850 km, 98.4° (Epoch: 20 October)

Event Time Altitude Azimuth Distance (km) Brightness Sun altitude
Rises 22:07:00 0° 162° (SSE) 3,398 7.1 -3.4°
Reaches altitude 10° 22:09:23 10° 160° (SSE) 2,465 6.4 -3.9°
Maximum altitude 22:14:49 69° 77° (ENE) 903 4.2 -5.3°
Drops below altitude 10° 22:20:16 10° 354° (N) 2,470 6.8 -6.6°
Sets 22:22:39 0° 352° (N) 3,405 7.5 -7.2°
